TimeEST,TemperatureF,Dew PointF,Humidity,Sea Level PressureIn,VisibilityMPH,Wind Direction,Wind SpeedMPH,Gust SpeedMPH,PrecipitationIn,Events,Conditions,WindDirDegrees,DateUTC
12:53 AM,24.1,10.9,57,29.78,10.0,North,4.6,-,N/A,,Partly Cloudy,360,2012-12-23 05:53:00
1:53 AM,23.0,12.0,63,29.80,10.0,Variable,3.5,-,N/A,,Clear,0,2012-12-23 06:53:00
2:53 AM,21.0,12.0,68,29.81,10.0,Calm,Calm,-,N/A,,Clear,0,2012-12-23 07:53:00
3:53 AM,21.9,12.0,66,29.81,10.0,Calm,Calm,-,N/A,,Clear,0,2012-12-23 08:53:00
4:53 AM,19.0,12.0,74,29.83,10.0,East,4.6,-,N/A,,Clear,90,2012-12-23 09:53:00
5:53 AM,18.0,12.0,78,29.85,10.0,Calm,Calm,-,N/A,,Clear,0,2012-12-23 10:53:00
6:53 AM,16.0,12.0,84,29.86,10.0,Calm,Calm,-,N/A,,Clear,0,2012-12-23 11:53:00
7:53 AM,17.1,12.9,84,29.86,10.0,Calm,Calm,-,N/A,,Clear,0,2012-12-23 12:53:00
8:53 AM,23.0,16.0,74,29.87,10.0,Calm,Calm,-,N/A,,Scattered Clouds,0,2012-12-23 13:53:00
9:53 AM,30.0,15.1,54,29.86,10.0,SW,5.8,-,N/A,,Clear,230,2012-12-23 14:53:00
10:53 AM,30.0,19.0,64,29.84,10.0,SSE,9.2,-,N/A,,Clear,160,2012-12-23 15:53:00
11:53 AM,32.0,19.9,61,29.82,10.0,South,12.7,20.7,N/A,,Mostly Cloudy,170,2012-12-23 16:53:00
12:53 PM,32.0,21.0,64,29.80,10.0,South,9.2,-,N/A,,Overcast,180,2012-12-23 17:53:00
1:53 PM,32.0,21.9,66,29.79,10.0,South,9.2,-,N/A,,Overcast,190,2012-12-23 18:53:00
2:53 PM,30.9,23.0,72,29.80,10.0,South,10.4,-,N/A,,Overcast,170,2012-12-23 19:53:00
3:53 PM,30.9,23.0,72,29.79,6.0,South,10.4,-,0.00,Snow,Light Snow,190,2012-12-23 20:53:00
4:53 PM,30.9,24.1,76,29.81,10.0,South,9.2,-,0.00,,Overcast,190,2012-12-23 21:53:00
5:53 PM,32.0,23.0,69,29.82,10.0,South,10.4,-,N/A,,Overcast,190,2012-12-23 22:53:00
6:53 PM,32.0,23.0,69,29.83,10.0,South,6.9,-,N/A,,Overcast,180,2012-12-23 23:53:00
7:53 PM,33.1,23.0,66,29.84,10.0,SSW,6.9,-,N/A,,Overcast,200,2012-12-24 00:53:00
8:53 PM,34.0,23.0,64,29.84,10.0,SSW,8.1,-,N/A,,Overcast,210,2012-12-24 01:53:00
9:53 PM,34.0,23.0,64,29.85,10.0,SSW,5.8,-,N/A,,Overcast,200,2012-12-24 02:53:00
10:53 PM,33.1,24.1,70,29.86,10.0,South,5.8,-,N/A,,Overcast,190,2012-12-24 03:53:00
11:53 PM,33.1,24.1,70,29.87,9.0,Calm,Calm,-,0.00,Snow,Light Snow,0,2012-12-24 04:53:00